M I D A S
Marine Information and Data Acquisition System
Tripno 2030 of the Zeeleeuw from 2011-01-13 07:54:20 to 2011-01-13 14:47:15
Back to CruiseResearch ActivitiesStationsMapUnderway DataData graphs

EquipmentUnitsComments
TimeDGPSUTC
LatitudeDGPSDM.mWGS84
LongitudeDGPSDM.mWGS84
SpeedMeteo Stationm/sRelative wind speed
DirectionMeteo StationdegRelative wind direction
TemperatureMeteo Stationdeg CelciusAir temperature
PressureMeteo StationPaAtmospheric pressure
HumidityMeteo Station%Relative humidity
Missing or incorrect values are displayed as -999
Metereological data collected by the RV Zeeleeuw from 2011-01-13 07:46:14 to 2011-01-13 14:51:57
Time Latitude Longitude Speed Direction Temperature Pressure Humidity
2011-01-13 07:47 51°13.661 2°55.961 7.7 25 10.5 100950 54
2011-01-13 07:48 51°13.662 2°55.962 13.1 38 10.5 100970 52
2011-01-13 07:49 51°13.662 2°55.963 11.4 40 10.5 100980 51
2011-01-13 07:50 51°13.662 2°55.963 9.8 28 10.5 100970 53
2011-01-13 07:51 51°13.662 2°55.962 5.6 40 10.5 100980 52
2011-01-13 07:52 51°13.662 2°55.963 12.1 43 10.4 100980 52
2011-01-13 07:53 51°13.662 2°55.963 7.6 32 10.4 100980 53
2011-01-13 07:54 51°13.662 2°55.962 7 42 10.4 100980 53
2011-01-13 07:55 51°13.662 2°55.962 10.6 34 10.4 100980 54
2011-01-13 07:56 51°13.662 2°55.962 10.3 38 10.4 100980 54
2011-01-13 07:57 51°13.662 2°55.962 6.1 35 10.5 100990 53
2011-01-13 07:58 51°13.661 2°55.961 8.9 22 10.4 100980 52
2011-01-13 07:59 51°13.678 2°55.902 13.1 43 10.4 100980 52
2011-01-13 08:00 51°13.695 2°55.798 4.9 23 10.4 100980 54
2011-01-13 08:01 51°13.695 2°55.735 6.1 21 10.5 100990 54
2011-01-13 08:02 51°13.716 2°55.733 7.2 258 10.5 101010 54
2011-01-13 08:03 51°13.792 2°55.668 5.1 24 10.4 100980 52
2011-01-13 08:04 51°13.927 2°55.562 7.5 28 10.4 100970 52
2011-01-13 08:05 51°14.081 2°55.448 7.8 248 10.3 100980 54
2011-01-13 08:06 51°14.247 2°55.328 13.3 23 10.1 100970 53
2011-01-13 08:07 51°14.398 2°55.175 16 24 9.7 100940 52
2011-01-13 08:08 51°14.563 2°55.007 17 22 9.4 100910 51
2011-01-13 08:09 51°14.708 2°54.849 16.1 23 9.3 100910 51
2011-01-13 08:10 51°14.88 2°54.651 18.6 24 9.1 100910 51
2011-01-13 08:11 51°15.044 2°54.458 14 21 9.1 100890 52
2011-01-13 08:12 51°15.207 2°54.255 16 24 9 100900 51
2011-01-13 08:13 51°15.371 2°54.055 17.5 23 8.9 100900 51
2011-01-13 08:14 51°15.533 2°53.852 18.7 26 8.9 100890 51
2011-01-13 08:15 51°15.693 2°53.636 16 21 8.9 100890 52
2011-01-13 08:16 51°15.862 2°53.438 16.4 20 8.8 100880 52
2011-01-13 08:17 51°16.053 2°53.281 15.4 25 8.8 100890 51
2011-01-13 08:18 51°16.247 2°53.132 9.6 242 8.7 100900 51
2011-01-13 08:19 51°16.44 2°52.986 14.4 26 8.7 100920 51
2011-01-13 08:20 51°16.632 2°52.836 15 21 8.6 100890 52
2011-01-13 08:21 51°16.826 2°52.678 15.2 25 8.6 100880 52
2011-01-13 08:22 51°17.014 2°52.534 18.1 20 8.6 100900 52
2011-01-13 08:23 51°17.218 2°52.416 15.1 245 8.5 100900 51
2011-01-13 08:24 51°17.432 2°52.328 12.5 248 8.5 100910 52
2011-01-13 08:25 51°17.652 2°52.254 18.4 249 8.4 100920 51
2011-01-13 08:26 51°17.869 2°52.185 13.1 254 8.3 100920 50
2011-01-13 08:27 51°18.09 2°52.193 12.9 255 8.4 100930 52
2011-01-13 08:28 51°18.314 2°52.231 13 254 8.4 100940 52
2011-01-13 08:29 51°18.543 2°52.26 12.4 254 8.3 100940 51
2011-01-13 08:30 51°18.769 2°52.288 17 255 8.3 100950 51
2011-01-13 08:31 51°18.997 2°52.32 13.4 259 8.3 100920 51
2011-01-13 08:32 51°19.218 2°52.341 9.6 18 8.2 100920 52
2011-01-13 08:33 51°19.448 2°52.331 15.9 252 8.2 100930 52
2011-01-13 08:34 51°19.67 2°52.323 13.4 255 8.2 100930 50
2011-01-13 08:35 51°19.895 2°52.302 13.9 257 8.1 100920 51
2011-01-13 08:36 51°20.114 2°52.286 11.3 254 8.1 100940 51
2011-01-13 08:37 51°20.337 2°52.255 13.5 252 8 100920 52
2011-01-13 08:38 51°20.531 2°52.185 18 24 8 100940 51
2011-01-13 08:39 51°20.692 2°52.025 13.8 24 8 100910 51
2011-01-13 08:40 51°20.851 2°51.848 12.9 21 8 100920 52
2011-01-13 08:41 51°21.015 2°51.674 14.3 22 7.9 100900 51
2011-01-13 08:42 51°21.177 2°51.51 13.8 20 7.9 100920 52
2011-01-13 08:43 51°21.342 2°51.35 16 21 7.9 100900 52
2011-01-13 08:44 51°21.509 2°51.185 18.2 25 7.9 100900 52
2011-01-13 08:45 51°21.689 2°51.055 14 21 7.9 100890 53
2011-01-13 08:46 51°21.881 2°50.948 12.9 24 7.9 100920 52
2011-01-13 08:47 51°22.069 2°50.826 15.1 24 8 100880 52
2011-01-13 08:48 51°22.246 2°50.673 17.4 22 7.9 100890 51
2011-01-13 08:49 51°22.389 2°50.478 21 25 7.9 100870 52
2011-01-13 08:50 51°22.495 2°50.232 9 27 8 100870 51
2011-01-13 08:51 51°22.597 2°49.975 18.2 26 8.1 100880 52
2011-01-13 08:52 51°22.714 2°49.718 16.3 23 8.1 100860 51
2011-01-13 08:53 51°22.824 2°49.468 8.4 24 8.1 100880 52
2011-01-13 08:54 51°22.936 2°49.214 8.5 24 8.1 100850 51
2011-01-13 08:55 51°23.05 2°48.964 8.3 24 8.1 100880 52
2011-01-13 08:56 51°23.161 2°48.707 15.4 23 8.2 100870 53
2011-01-13 08:57 51°23.273 2°48.453 14.4 20 8.2 100860 53
2011-01-13 08:58 51°23.38 2°48.204 14.9 26 8.1 100870 50
2011-01-13 08:59 51°23.492 2°47.953 16.1 25 8.1 100880 53
2011-01-13 09:00 51°23.604 2°47.701 15.2 23 8.1 100870 52
2011-01-13 09:01 51°23.712 2°47.446 17 20 8.1 100900 51
2011-01-13 09:02 51°23.807 2°47.177 14.4 22 8.1 100870 53
2011-01-13 09:03 51°23.897 2°46.904 15 22 8.2 100850 52
2011-01-13 09:04 51°23.992 2°46.628 16.1 24 8.2 100870 53
2011-01-13 09:05 51°24.079 2°46.364 18.6 21 8.2 100850 53
2011-01-13 09:06 51°24.173 2°46.094 18.4 21 8.2 100860 52
2011-01-13 09:07 51°24.264 2°45.822 8.4 23 8.2 100870 52
2011-01-13 09:08 51°24.354 2°45.535 18.9 22 8.2 100870 52
2011-01-13 09:09 51°24.403 2°45.261 20.4 317 8.1 100890 52
2011-01-13 09:10 51°24.428 2°44.973 16.8 319 8.2 100860 53
2011-01-13 09:11 51°24.453 2°44.715 16.3 316 8.2 100880 53
2011-01-13 09:12 51°24.475 2°44.554 14.6 316 8.2 100890 52
2011-01-13 09:13 51°24.501 2°44.414 14 316 8.2 100900 53
2011-01-13 09:14 51°24.524 2°44.26 17 317 8.2 100940 52
2011-01-13 09:15 51°24.55 2°44.117 15 317 8.2 100950 52
2011-01-13 09:16 51°24.573 2°43.957 15.2 315 8.2 100880 52
2011-01-13 09:17 51°24.601 2°43.825 13.5 23 8.2 100890 53
2011-01-13 09:18 51°24.626 2°43.766 15.9 22 8.2 100900 51
2011-01-13 09:19 51°24.648 2°43.712 11.1 25 8.3 100910 52
2011-01-13 09:20 51°24.671 2°43.725 13 24 8.2 100930 52
2011-01-13 09:21 51°24.69 2°43.756 14.5 259 8.2 100940 53
2011-01-13 09:22 51°24.706 2°43.787 10.6 263 8.2 100980 51
2011-01-13 09:23 51°24.725 2°43.816 14.3 261 8.1 100960 51
2011-01-13 09:24 51°24.762 2°43.81 15.4 27 8 100950 52
2011-01-13 09:25 51°24.787 2°43.761 17.1 330 8.1 100900 53
2011-01-13 09:26 51°24.764 2°43.718 12.9 344 8.2 100930 53
2011-01-13 09:27 51°24.721 2°43.677 12.4 343 8.1 100920 52
2011-01-13 09:28 51°24.698 2°43.659 13.2 343 8.2 100930 52
2011-01-13 09:29 51°24.681 2°43.653 12.5 345 8.1 100940 52
2011-01-13 09:30 51°24.664 2°43.648 10.4 347 8.1 100960 53
2011-01-13 09:31 51°24.664 2°43.667 9.6 2 8.1 100920 52
2011-01-13 09:32 51°24.673 2°43.697 12.8 12 8.1 100980 53
2011-01-13 09:33 51°24.687 2°43.726 10.6 26 8 100970 53
2011-01-13 09:34 51°24.702 2°43.752 11.5 26 8.1 101000 54
2011-01-13 09:35 51°24.718 2°43.778 12.9 27 8 100990 52
2011-01-13 09:36 51°24.732 2°43.803 11.2 20 8 100990 52
2011-01-13 09:37 51°24.721 2°43.838 12.4 6 8 100980 54
2011-01-13 09:38 51°24.687 2°43.838 10.8 340 8 100950 51
2011-01-13 09:39 51°24.673 2°43.796 12.1 340 8.1 100950 53
2011-01-13 09:40 51°24.642 2°43.777 11.2 345 8.1 100970 51
2011-01-13 09:41 51°24.633 2°43.75 15 317 8.1 100940 52
2011-01-13 09:42 51°24.654 2°43.729 12.8 24 8.2 100920 52
2011-01-13 09:43 51°24.676 2°43.723 14.4 23 8.1 100950 52
2011-01-13 09:44 51°24.697 2°43.748 13.3 20 8.1 100960 53
2011-01-13 09:45 51°24.715 2°43.774 14.3 260 8.1 100980 52
2011-01-13 09:46 51°24.73 2°43.801 10.3 265 8.1 101000 53
2011-01-13 09:47 51°24.756 2°43.817 13.2 25 8.1 101000 52
2011-01-13 09:48 51°24.787 2°43.752 15 329 8.1 100910 52
2011-01-13 09:49 51°24.738 2°43.717 15 347 8.2 100900 53
2011-01-13 09:50 51°24.698 2°43.679 16.6 341 8.2 100960 53
2011-01-13 09:51 51°24.661 2°43.658 11.3 360 8.2 100910 52
2011-01-13 09:52 51°24.65 2°43.679 9 2 8.1 100940 52
2011-01-13 09:53 51°24.666 2°43.709 6.2 21 8 100940 53
2011-01-13 09:54 51°24.68 2°43.737 15 25 8 101020 51
2011-01-13 09:55 51°24.693 2°43.763 11.2 24 8.1 101040 52
2011-01-13 09:56 51°24.706 2°43.789 12.5 22 8 100990 53
2011-01-13 09:57 51°24.72 2°43.813 11.3 19 8 100990 52
2011-01-13 09:58 51°24.717 2°43.846 10.4 5 8.1 101000 52
2011-01-13 09:59 51°24.687 2°43.859 13.2 348 8.1 100980 52
2011-01-13 10:00 51°24.664 2°43.808 15.1 336 8.1 100950 52
2011-01-13 10:01 51°24.642 2°43.778 12.6 342 8.1 100950 53
2011-01-13 10:02 51°24.631 2°43.746 15.1 24 8.1 100950 53
2011-01-13 10:03 51°24.655 2°43.724 17.3 24 8.1 100950 53
2011-01-13 10:04 51°24.679 2°43.725 13.2 21 8.2 100950 54
2011-01-13 10:05 51°24.698 2°43.749 14.2 259 8.1 100980 53
2011-01-13 10:06 51°24.714 2°43.779 8.1 265 8.1 101000 54
2011-01-13 10:07 51°24.728 2°43.805 10.6 265 8 100990 51
2011-01-13 10:08 51°24.746 2°43.83 11.3 263 8.1 100990 53
2011-01-13 10:09 51°24.761 2°43.856 11 262 8.1 100990 52
2011-01-13 10:10 51°24.793 2°43.869 13.5 259 8.1 100940 51
2011-01-13 10:11 51°24.887 2°43.89 9.8 26 8.1 100960 51
2011-01-13 10:12 51°25.016 2°44.018 8.2 21 8.1 100970 51
2011-01-13 10:13 51°25.168 2°44.215 8.3 23 8 100980 54
2011-01-13 10:14 51°25.329 2°44.452 6.2 28 8 100980 53
2011-01-13 10:15 51°25.494 2°44.696 6.6 21 8 100980 54
2011-01-13 10:16 51°25.639 2°44.945 5.8 26 8 100990 50
2011-01-13 10:17 51°25.799 2°45.187 5.1 20 8 100980 52
2011-01-13 10:18 51°25.972 2°45.412 6.4 25 8 100980 54
2011-01-13 10:19 51°26.134 2°45.64 8 25 8 100980 51
2011-01-13 10:20 51°26.301 2°45.869 6.1 26 8.1 100980 54
2011-01-13 10:21 51°26.467 2°46.106 5.2 25 8.1 100970 53
2011-01-13 10:22 51°26.641 2°46.326 8.8 24 8 100970 48
2011-01-13 10:23 51°26.838 2°46.486 9.4 31 8 100950 54
2011-01-13 10:24 51°27.031 2°46.654 6.9 21 8 100940 53
2011-01-13 10:25 51°27.221 2°46.838 8.5 270 8 100960 50
2011-01-13 10:26 51°27.407 2°47.027 6.8 18 7.9 100950 50
2011-01-13 10:27 51°27.605 2°47.194 7.9 269 7.9 100940 54
2011-01-13 10:28 51°27.807 2°47.338 8.4 18 7.9 100940 52
2011-01-13 10:29 51°28.005 2°47.507 9.5 269 7.9 100940 53
2011-01-13 10:30 51°28.186 2°47.687 7.6 24 7.9 100950 50
2011-01-13 10:31 51°28.336 2°47.945 4.6 24 7.9 100970 50
2011-01-13 10:32 51°28.489 2°48.198 6.5 22 8 100960 51
2011-01-13 10:33 51°28.652 2°48.437 3.7 19 7.9 100960 55
2011-01-13 10:34 51°28.821 2°48.674 8.2 25 7.9 100970 54
2011-01-13 10:35 51°28.986 2°48.906 6.4 25 7.9 100970 51
2011-01-13 10:36 51°29.139 2°49.159 8 22 7.9 100960 51
2011-01-13 10:37 51°29.295 2°49.417 7 19 7.9 100950 54
2011-01-13 10:38 51°29.454 2°49.667 5.7 24 7.9 100960 54
2011-01-13 10:39 51°29.609 2°49.923 6.2 19 7.9 100960 51
2011-01-13 10:40 51°29.777 2°50.157 6.1 23 7.8 100950 54
2011-01-13 10:41 51°29.929 2°50.412 6.2 21 7.9 100950 54
2011-01-13 10:42 51°30.079 2°50.667 6.3 19 7.9 100960 53
2011-01-13 10:43 51°30.245 2°50.905 5.9 22 7.9 100950 54
2011-01-13 10:44 51°30.414 2°51.101 8.9 26 7.9 100950 54
2011-01-13 10:45 51°30.497 2°51.253 4.7 24 8 100950 51
2011-01-13 10:46 51°30.555 2°51.373 10.1 26 8.3 100940 54
2011-01-13 10:47 51°30.605 2°51.456 14.1 24 8.1 100940 51
2011-01-13 10:48 51°30.624 2°51.48 11.9 268 7.9 100910 54
2011-01-13 10:49 51°30.636 2°51.502 10.1 263 7.9 100920 53
2011-01-13 10:50 51°30.648 2°51.523 14.7 257 7.9 100910 50
2011-01-13 10:51 51°30.665 2°51.544 10.2 263 7.8 100910 52
2011-01-13 10:52 51°30.682 2°51.564 9.7 262 7.8 100910 53
2011-01-13 10:53 51°30.698 2°51.583 11.8 263 7.7 100950 51
2011-01-13 10:54 51°30.716 2°51.602 13.3 260 7.7 100930 52
2011-01-13 10:55 51°30.735 2°51.62 14.7 260 7.7 100910 53
2011-01-13 10:56 51°30.755 2°51.639 8.3 264 7.7 100900 53
2011-01-13 10:57 51°30.773 2°51.658 14.7 259 7.7 100910 52
2011-01-13 10:58 51°30.789 2°51.679 12.1 263 7.7 100930 51
2011-01-13 10:59 51°30.805 2°51.699 12.4 262 7.7 100930 51
2011-01-13 11:00 51°30.822 2°51.721 12.7 260 7.7 100940 52
2011-01-13 11:01 51°30.837 2°51.74 12.2 257 7.7 100930 53
2011-01-13 11:02 51°30.852 2°51.76 8.6 265 7.7 100930 52
2011-01-13 11:03 51°30.865 2°51.783 9.3 262 7.7 100930 54
2011-01-13 11:04 51°30.878 2°51.804 10.9 260 7.7 100930 53
2011-01-13 11:05 51°30.893 2°51.826 7.3 266 7.7 100940 52
2011-01-13 11:06 51°30.908 2°51.847 10.4 264 7.7 100940 51
2011-01-13 11:07 51°30.921 2°51.868 12.4 260 7.7 100940 53
2011-01-13 11:08 51°30.934 2°51.891 11.1 260 7.7 100940 53
2011-01-13 11:09 51°30.947 2°51.913 11.9 262 7.7 100950 52
2011-01-13 11:10 51°30.962 2°51.935 7.8 260 7.7 100960 53
2011-01-13 11:11 51°30.977 2°51.953 14.3 262 7.7 100990 52
2011-01-13 11:12 51°30.993 2°51.97 13 261 7.7 100950 52
2011-01-13 11:13 51°31.01 2°51.988 15.3 261 7.7 100940 52
2011-01-13 11:14 51°31.025 2°52.005 14.2 260 7.6 100940 52
2011-01-13 11:15 51°31.041 2°52.022 17 259 7.6 100930 53
2011-01-13 11:16 51°31.056 2°52.04 10.4 263 7.6 100940 52
2011-01-13 11:17 51°31.07 2°52.06 11.8 262 7.7 100930 53
2011-01-13 11:18 51°31.082 2°52.08 8 262 7.8 100930 53
2011-01-13 11:19 51°31.094 2°52.097 13.1 260 7.7 100950 52
2011-01-13 11:20 51°31.107 2°52.118 10.9 261 7.8 100930 52
2011-01-13 11:21 51°31.119 2°52.14 9.5 261 7.7 100940 52
2011-01-13 11:22 51°31.13 2°52.158 9.8 259 7.7 100920 53
2011-01-13 11:23 51°31.143 2°52.178 10.9 263 7.7 100930 53
2011-01-13 11:24 51°31.156 2°52.196 9.4 264 7.7 100940 54
2011-01-13 11:25 51°31.169 2°52.215 12.5 260 7.6 100950 53
2011-01-13 11:26 51°31.184 2°52.232 14.8 260 7.7 100940 53
2011-01-13 11:27 51°31.196 2°52.249 13 265 7.7 100940 51
2011-01-13 11:28 51°31.207 2°52.273 11.2 263 7.7 100930 54
2011-01-13 11:29 51°31.216 2°52.297 11.1 264 7.7 100940 51
2011-01-13 11:30 51°31.226 2°52.319 10.5 267 7.6 100950 53
2011-01-13 11:31 51°31.236 2°52.339 10.2 264 7.6 100950 52
2011-01-13 11:32 51°31.248 2°52.361 16.8 257 7.7 100950 53
2011-01-13 11:33 51°31.264 2°52.376 11.7 259 7.6 100990 52
2011-01-13 11:34 51°31.29 2°52.376 12.3 259 7.6 100950 51
2011-01-13 11:35 51°31.332 2°52.359 14.5 253 7.6 100950 52
2011-01-13 11:36 51°31.384 2°52.327 13.4 254 7.6 100950 52
2011-01-13 11:37 51°31.447 2°52.286 13.6 256 7.7 100950 51
2011-01-13 11:38 51°31.517 2°52.244 13.4 261 7.7 100960 52
2011-01-13 11:39 51°31.589 2°52.203 12.7 257 7.7 100950 52
2011-01-13 11:40 51°31.663 2°52.162 13.9 256 7.7 100960 53
2011-01-13 11:41 51°31.731 2°52.111 15.7 259 7.7 100930 52
2011-01-13 11:42 51°31.783 2°52.084 13.9 253 7.7 100940 52
2011-01-13 11:43 51°31.797 2°52.093 14.1 259 7.7 100960 52
2011-01-13 11:44 51°31.794 2°52.123 11.6 270 7.7 100980 54
2011-01-13 11:45 51°31.798 2°52.143 11.2 266 7.7 100950 52
2011-01-13 11:46 51°31.804 2°52.16 8.8 263 7.6 100950 50
2011-01-13 11:47 51°31.812 2°52.183 10.2 264 7.7 100970 52
2011-01-13 11:48 51°31.822 2°52.202 16.1 259 7.8 100920 53
2011-01-13 11:49 51°31.841 2°52.198 10.8 22 7.7 100920 53
2011-01-13 11:50 51°31.859 2°52.187 12.8 25 7.7 100910 52
2011-01-13 11:51 51°31.876 2°52.175 17.5 22 7.7 100900 51
2011-01-13 11:52 51°31.893 2°52.168 15.4 23 7.7 100920 53
2011-01-13 11:53 51°31.91 2°52.148 6.2 24 7.7 100910 52
2011-01-13 11:54 51°31.925 2°52.126 12.9 26 7.7 100910 51
2011-01-13 11:55 51°31.936 2°52.104 11.3 323 7.8 100920 53
2011-01-13 11:56 51°31.936 2°52.085 11.9 339 7.8 100930 53
2011-01-13 11:57 51°31.919 2°52.096 12.4 2 7.7 100890 52
2011-01-13 11:58 51°31.889 2°52.114 14.2 348 7.7 100890 52
2011-01-13 11:59 51°31.855 2°52.099 14.9 333 7.7 100910 53
2011-01-13 12:00 51°31.82 2°52.039 12 337 7.8 100920 53
2011-01-13 12:01 51°31.778 2°52.039 14.7 16 7.7 100880 52
2011-01-13 12:02 51°31.765 2°52.077 11.2 21 7.7 100910 52
2011-01-13 12:03 51°31.776 2°52.089 13.7 30 7.6 100960 52
2011-01-13 12:04 51°31.785 2°52.109 13.4 29 7.7 100980 52
2011-01-13 12:05 51°31.79 2°52.128 10.2 25 7.7 100960 53
2011-01-13 12:06 51°31.795 2°52.147 13.2 26 7.6 100970 51
2011-01-13 12:07 51°31.8 2°52.168 10.4 20 7.6 100970 51
2011-01-13 12:08 51°31.761 2°52.237 6.3 15 7.6 100970 53
2011-01-13 12:09 51°31.669 2°52.368 7.2 12 7.6 100960 51
2011-01-13 12:10 51°31.565 2°52.513 19.2 11 7.6 100900 52
2011-01-13 12:11 51°31.455 2°52.666 9.8 7 7.6 100900 51
2011-01-13 12:12 51°31.334 2°52.828 12.5 8 7.6 100910 52
2011-01-13 12:13 51°31.221 2°53.019 6.4 16 7.6 100920 53
2011-01-13 12:14 51°31.131 2°53.238 9.6 19 7.6 100930 52
2011-01-13 12:15 51°31.035 2°53.453 5.7 17 7.5 100940 52
2011-01-13 12:16 51°30.93 2°53.66 15.2 10 7.5 100940 53
2011-01-13 12:17 51°30.857 2°53.892 10.9 31 7.5 100950 52
2011-01-13 12:18 51°30.834 2°54.156 10.2 30 7.5 100970 52
2011-01-13 12:19 51°30.822 2°54.366 10.8 32 7.5 100970 53
2011-01-13 12:20 51°30.802 2°54.485 11.7 32 7.5 100950 51
2011-01-13 12:21 51°30.789 2°54.577 9.5 27 7.5 100960 53
2011-01-13 12:22 51°30.764 2°54.663 13.7 21 7.5 100950 53
2011-01-13 12:23 51°30.721 2°54.739 12 11 7.5 100950 52
2011-01-13 12:24 51°30.664 2°54.788 15.4 8 7.4 100950 52
2011-01-13 12:25 51°30.607 2°54.827 11.7 10 7.4 100940 52
2011-01-13 12:26 51°30.556 2°54.875 17 9 7.4 100940 50
2011-01-13 12:27 51°30.508 2°54.932 16.5 10 7.4 100950 51
2011-01-13 12:28 51°30.459 2°54.987 5.8 17 7.4 100950 51
2011-01-13 12:29 51°30.414 2°55.054 13.4 19 7.4 100950 53
2011-01-13 12:30 51°30.369 2°55.12 5.2 17 7.4 100960 52
2011-01-13 12:31 51°30.326 2°55.181 5.8 19 7.3 100970 51
2011-01-13 12:32 51°30.29 2°55.251 5.3 27 7.3 100970 50
2011-01-13 12:33 51°30.269 2°55.337 12.5 31 7.3 100980 51
2011-01-13 12:34 51°30.26 2°55.43 7.5 39 7.3 100980 50
2011-01-13 12:35 51°30.263 2°55.527 11.7 38 7.2 100980 52
2011-01-13 12:36 51°30.264 2°55.625 11.5 36 7.3 100980 51
2011-01-13 12:37 51°30.267 2°55.721 11.2 41 7.3 100970 53
2011-01-13 12:38 51°30.281 2°55.815 9.1 21 7.3 100970 52
2011-01-13 12:39 51°30.296 2°55.907 10.5 42 7.3 100970 53
2011-01-13 12:40 51°30.311 2°56.001 10.5 23 7.3 100970 52
2011-01-13 12:41 51°30.325 2°56.098 10.5 20 7.3 100970 51
2011-01-13 12:42 51°30.338 2°56.195 11.2 24 7.2 100970 51
2011-01-13 12:43 51°30.353 2°56.292 7.3 43 7.2 100980 53
2011-01-13 12:44 51°30.369 2°56.387 10.9 44 7.2 100970 51
2011-01-13 12:45 51°30.382 2°56.484 9.6 27 7.3 100970 53
2011-01-13 12:46 51°30.396 2°56.58 8.4 44 7.3 100960 52
2011-01-13 12:47 51°30.408 2°56.678 9.3 26 7.3 100960 52
2011-01-13 12:48 51°30.422 2°56.773 10.7 22 7.3 100970 52
2011-01-13 12:49 51°30.436 2°56.869 8.7 23 7.3 100960 51
2011-01-13 12:50 51°30.451 2°56.964 9.9 23 7.2 100960 49
2011-01-13 12:51 51°30.465 2°57.06 10.6 18 7.2 100960 53
2011-01-13 12:52 51°30.479 2°57.158 11 20 7.3 100960 51
2011-01-13 12:53 51°30.494 2°57.255 9.1 25 7.3 100960 51
2011-01-13 12:54 51°30.509 2°57.353 8.3 23 7.3 100970 52
2011-01-13 12:55 51°30.522 2°57.45 10.9 43 7.2 100970 50
2011-01-13 12:56 51°30.523 2°57.548 9 37 7.2 100960 53
2011-01-13 12:57 51°30.504 2°57.637 13 27 7.2 100960 53
2011-01-13 12:58 51°30.469 2°57.714 10.3 22 7.2 100940 52
2011-01-13 12:59 51°30.426 2°57.782 13.2 15 7.1 100950 53
2011-01-13 13:00 51°30.384 2°57.846 14.2 14 7.2 100950 50
2011-01-13 13:01 51°30.339 2°57.898 14.6 14 7.1 100940 53
2011-01-13 13:02 51°30.291 2°57.942 14.3 8 7.1 100940 51
2011-01-13 13:03 51°30.24 2°57.974 9.1 5 7.1 100950 53
2011-01-13 13:04 51°30.188 2°57.998 5.2 4 7.1 100940 53
2011-01-13 13:05 51°30.136 2°58.019 11 3 7.1 100940 53
2011-01-13 13:06 51°30.087 2°58.036 9.5 356 7.1 100940 51
2011-01-13 13:07 51°30.04 2°58.04 10.6 353 7 100940 51
2011-01-13 13:08 51°30.016 2°58.046 12.9 355 7 100950 52
2011-01-13 13:09 51°30.009 2°58.059 11.6 4 7.1 100940 51
2011-01-13 13:10 51°30.009 2°58.074 13.2 17 7.1 100940 53
2011-01-13 13:11 51°30.011 2°58.086 9.4 24 7.1 100950 53
2011-01-13 13:12 51°30.015 2°58.097 5.2 27 7 100950 52
2011-01-13 13:13 51°30.018 2°58.11 5 23 7 100950 53
2011-01-13 13:14 51°29.991 2°58.144 5.4 -999 7 100940 50
2011-01-13 13:15 51°29.9 2°58.098 16.1 339 7.1 100950 53
2011-01-13 13:16 51°29.757 2°58.026 15.5 349 7.1 100920 52
2011-01-13 13:17 51°29.568 2°57.996 17.3 350 7.1 100910 51
2011-01-13 13:18 51°29.37 2°57.974 14.6 349 7.1 100930 52
2011-01-13 13:19 51°29.241 2°57.96 13.8 351 7.1 100940 53
2011-01-13 13:20 51°29.131 2°57.945 15.2 350 7.1 100930 52
2011-01-13 13:21 51°29.002 2°57.927 14.4 347 7.2 100940 53
2011-01-13 13:22 51°28.821 2°57.891 13.5 350 7.1 100940 51
2011-01-13 13:23 51°28.62 2°57.846 14.9 346 7.1 100950 52
2011-01-13 13:24 51°28.419 2°57.781 14.2 347 7.1 100950 52
2011-01-13 13:25 51°28.218 2°57.712 14.2 349 7.2 100940 52
2011-01-13 13:26 51°28.015 2°57.644 11.4 344 7.2 100940 52
2011-01-13 13:27 51°27.818 2°57.581 14.2 347 7.2 100940 51
2011-01-13 13:28 51°27.617 2°57.521 14.8 345 7.2 100950 52
2011-01-13 13:29 51°27.418 2°57.461 15.5 349 7.2 100970 52
2011-01-13 13:30 51°27.227 2°57.404 16.3 347 7.2 100970 51
2011-01-13 13:31 51°27.052 2°57.348 14.1 349 7.2 100960 53
2011-01-13 13:32 51°26.887 2°57.283 15.4 343 7.2 100960 52
2011-01-13 13:33 51°26.727 2°57.174 16.9 343 7.1 100990 53
2011-01-13 13:34 51°26.568 2°57.052 18.1 342 7.2 100980 52
2011-01-13 13:35 51°26.408 2°56.946 13.1 340 7.2 100990 52
2011-01-13 13:36 51°26.251 2°56.842 12.7 342 7.2 101000 52
2011-01-13 13:37 51°26.075 2°56.719 16.1 345 7.2 100990 53
2011-01-13 13:38 51°25.898 2°56.595 17.8 344 7.3 100980 52
2011-01-13 13:39 51°25.722 2°56.478 15.2 342 7.3 100980 53
2011-01-13 13:40 51°25.547 2°56.364 16.6 341 7.2 100990 52
2011-01-13 13:41 51°25.371 2°56.247 13.4 346 7.2 100990 52
2011-01-13 13:42 51°25.191 2°56.138 7.7 344 7.2 101000 52
2011-01-13 13:43 51°25.012 2°56.027 18.1 344 7.2 100990 52
2011-01-13 13:44 51°24.835 2°55.922 14 344 7.2 100990 52
2011-01-13 13:45 51°24.661 2°55.822 14.1 344 7.2 101000 52
2011-01-13 13:46 51°24.481 2°55.716 14.4 345 7.2 100980 52
2011-01-13 13:47 51°24.298 2°55.607 13.3 344 7.2 101000 52
2011-01-13 13:48 51°24.118 2°55.504 16.5 345 7.3 101000 53
2011-01-13 13:49 51°23.942 2°55.402 14 344 7.2 101000 52
2011-01-13 13:50 51°23.76 2°55.292 13.3 344 7.2 101010 52
2011-01-13 13:51 51°23.577 2°55.183 15.9 345 7.2 101020 53
2011-01-13 13:52 51°23.391 2°55.098 17.2 345 7.2 101020 52
2011-01-13 13:53 51°23.2 2°55.024 17.4 346 7.2 101010 52
2011-01-13 13:54 51°23.012 2°54.952 13.8 346 7.2 101010 51
2011-01-13 13:55 51°22.823 2°54.878 13.7 348 7.2 101010 51
2011-01-13 13:56 51°22.635 2°54.809 8.1 346 7.2 101020 51
2011-01-13 13:57 51°22.447 2°54.741 16.8 347 7.2 101010 52
2011-01-13 13:58 51°22.259 2°54.663 12.3 347 7.3 101010 52
2011-01-13 13:59 51°22.068 2°54.589 8.4 346 7.3 101010 52
2011-01-13 14:00 51°21.879 2°54.515 17.1 346 7.3 101020 52
2011-01-13 14:01 51°21.695 2°54.425 17.3 344 7.3 101030 53
2011-01-13 14:02 51°21.513 2°54.326 16.6 345 7.3 101020 52
2011-01-13 14:03 51°21.332 2°54.228 13.7 346 7.3 101040 52
2011-01-13 14:04 51°21.148 2°54.126 19.5 345 7.3 101030 53
2011-01-13 14:05 51°20.966 2°54.03 16.1 345 7.4 101050 51
2011-01-13 14:06 51°20.784 2°53.93 15.9 346 7.4 101060 52
2011-01-13 14:07 51°20.604 2°53.835 14.3 344 7.5 101050 52
2011-01-13 14:08 51°20.419 2°53.731 17.6 344 7.4 101040 53
2011-01-13 14:09 51°20.234 2°53.633 15.9 348 7.5 101050 52
2011-01-13 14:10 51°20.051 2°53.533 12.4 345 7.5 101060 51
2011-01-13 14:11 51°19.87 2°53.418 13.1 346 7.4 101070 53
2011-01-13 14:12 51°19.693 2°53.312 11.6 346 7.4 101070 53
2011-01-13 14:13 51°19.515 2°53.204 12.9 345 7.4 101070 53
2011-01-13 14:14 51°19.335 2°53.096 14.8 347 7.4 101070 52
2011-01-13 14:15 51°19.155 2°52.985 14.2 347 7.5 101070 52
2011-01-13 14:16 51°18.972 2°52.875 17.2 346 7.5 101070 53
2011-01-13 14:17 51°18.787 2°52.789 15.6 349 7.5 101060 52
2011-01-13 14:18 51°18.599 2°52.711 16.9 351 7.5 101070 52
2011-01-13 14:19 51°18.413 2°52.629 13.2 346 7.6 101060 53
2011-01-13 14:20 51°18.226 2°52.548 14.5 349 7.6 101060 53
2011-01-13 14:21 51°18.038 2°52.469 12.7 348 7.6 101060 53
2011-01-13 14:22 51°17.846 2°52.409 7 350 7.6 101050 54
2011-01-13 14:23 51°17.655 2°52.366 15.9 351 7.6 101050 53
2011-01-13 14:24 51°17.46 2°52.338 13.9 354 7.7 101070 53
2011-01-13 14:25 51°17.265 2°52.311 11.1 355 7.6 101070 53
2011-01-13 14:26 51°17.071 2°52.333 9 1 7.6 101070 53
2011-01-13 14:27 51°16.899 2°52.489 9 8 7.6 101100 53
2011-01-13 14:28 51°16.727 2°52.651 3.9 9 7.6 101110 51
2011-01-13 14:29 51°16.546 2°52.788 8.1 6 7.6 101110 54
2011-01-13 14:30 51°16.374 2°52.945 11.1 9 7.7 101110 54
2011-01-13 14:31 51°16.202 2°53.101 10 9 7.7 101110 51
2011-01-13 14:32 51°16.031 2°53.26 8.6 5 7.7 101110 51
2011-01-13 14:33 51°15.858 2°53.415 9.9 8 7.8 101120 51
2011-01-13 14:34 51°15.695 2°53.593 10.8 12 7.8 101120 52
2011-01-13 14:35 51°15.534 2°53.779 10.1 10 7.9 101120 53
2011-01-13 14:36 51°15.377 2°53.963 9.6 10 7.9 101120 53
2011-01-13 14:37 51°15.228 2°54.165 9.8 13 8 101130 52
2011-01-13 14:38 51°15.088 2°54.378 12.1 13 8 101140 52
2011-01-13 14:39 51°14.943 2°54.555 9.3 12 8 101130 53
2011-01-13 14:40 51°14.795 2°54.722 12.3 14 8.1 101130 52
2011-01-13 14:41 51°14.649 2°54.885 10.6 10 8.1 101130 54
2011-01-13 14:42 51°14.5 2°55.037 11.3 9 8.1 101130 51
2011-01-13 14:43 51°14.341 2°55.202 8.9 9 8.2 101130 52
2011-01-13 14:44 51°14.205 2°55.347 5.5 358 8.2 101140 54
2011-01-13 14:45 51°14.09 2°55.445 2 330 8.5 101150 55
2011-01-13 14:46 51°13.995 2°55.523 5.1 4 8.7 101150 54
2011-01-13 14:47 51°13.901 2°55.589 3 348 9 101160 54
2011-01-13 14:48 51°13.808 2°55.653 3.1 7 9.2 101160 55
2011-01-13 14:49 51°13.74 2°55.748 0.9 6 9.3 101160 54
2011-01-13 14:50 51°13.698 2°55.842 0.1 23 9.3 101160 54
2011-01-13 14:51 51°13.668 2°55.931 2.1 32 9.4 101160 52